FAUNA (43052 NORAD) Tracking and Keplerian Element Data

This shows tracking and keplerian element data for the satellite.

Feedback or suggestion? Click here.




ElementValue
Catalog43052
NameFAUNA
Epoch Orbit5744
Epoch Day349.11171626
Epoch Year2018
RAAN238.6752
Inclination51.6389
Eccentricity0.000201
Argument of Perigee199.6537
Mean Anonmoly160.4371
Mean Motion15.40306571
Decay Rate2.503E-05
L11 43052U 17071R 18349.11171626 .00002503 00000-0 70943-4 0 9997
L22 43052 51.6389 238.6752 0002010 199.6537 160.4371 15.40306571 57448

Live tracking and technical data element details for FAUNA (NORAD 43052). FAUNA can be tracked NOW for your location showing map with azimuth and elevation plus other details from your city location.

Track the satellite on the map from your city or location and see movement details for azimuth, elevation, latitude, longitude, range, height, and movement on the map or in text.







IsCatalogInMostPopularTable: catalog: 43052, numindb: 167
Update: records affected: 1



GetName: 43052 FAUNA

Hit Count: updated at: Sat, 15 Dec 2018 13:12:47 GMT